Regional Weather Roundup
Issued by NWS

Home | Current Version | Previous Version | Text Only | Print | Product List | Glossary On
Versions: 1 2 3 4 5 6 7 8 9 10 11 12 13 14 15 16 17 18 19 20 21 22 23 24 25 26 27 28 29 30 31 32 33 34 35 36 37 38 39 40 41 42 43 44 45 46 47 48 49 50
625
ASUS44 KJAN 010610
RWRMS

MISSISSIPPI HOURLY WEATHER ROUNDUP
NATIONAL WEATHER SERVICE JACKSON MS
100 AM CDT SUN MAY 01 2016

NOTE: "FAIR: INDICATES FEW OR NO CLOUDS BELOW 12,000 FEET WITH NO
SIGNIFICANT WEATHER AND/OR OBSTRUCTIONS TO VISIBILITY.

MSZ001>002-007>008-010>013-018>021-025>028-034>036-010700-
NORTHWEST MISSISSIPPI

CITY           SKY/WX    TMP DP  RH WIND       PRES   REMARKS
BATESVILLE     CLOUDY    64  64  97 CALM      29.88S
CLEVELAND      FAIR      69  69 100 S7        29.85S
GREENWOOD      MOCLDY    67  62  84 S7        29.87R
6HR MIN TEMP:  66; 6HR MAX TEMP:  75;

GREENVILLE     CLEAR     69  65  86 S8        29.85R
6HR MIN TEMP:  68; 6HR MAX TEMP:  75;

OLIVE BRANCH   CLEAR     64 N/A N/A S5        29.87S
OXFORD         FAIR      63  63 100 S6        29.90S
TUNICA         CLEAR     64  63  94 SE6       29.87R
WINONA         FAIR      65  64  96 S3        29.88S
$$

MSZ003>006-009-014>017-022>024-029>033-037>039-010700-
NORTHEAST MISSISSIPPI

CITY           SKY/WX    TMP DP  RH WIND       PRES   REMARKS
COLUMBUS AFB   MOCLDY    61  59  94 SE6       29.91R
6HR MIN TEMP:  61; 6HR MAX TEMP:  76;

CORINTH        FAIR      66  66 100 S5        29.89S
GOLDN TRIANGLE MOCLDY    64  61  88 SE6       29.91R
STARKVILLE     MOCLDY    63  61  94 CALM      29.90R
TUPELO         PTCLDY    64  60  87 S5        29.89S
6HR MIN TEMP:  64; 6HR MAX TEMP:  73;

$$

MSZ040-058-010700-
CENTRAL MISSISSIPPI

CITY           SKY/WX    TMP DP  RH WIND       PRES   REMARKS
JACKSON INTL   MOCLDY    66  63  90 S6        29.89S
6HR MIN TEMP:  66; 6HR MAX TEMP:  73;

JACKSON HAWKNS MOCLDY    66  63  90 S3        29.89S
6HR MIN TEMP:  66; 6HR MAX TEMP:  72;

MADISON        MOCLDY    64  63  94 CALM      29.89S
MERIDIAN KEY   CLOUDY    63  62  97 CALM      29.91S
6HR MIN TEMP:  60; 6HR MAX TEMP:  68; 6HR PCP: TRACE;

MERIDIAN NAS   MOCLDY    65  61  87 W3        29.92R
6HR MIN TEMP:  61; 6HR MAX TEMP:  72;

VICKSBURG TVR  PTCLDY    70  66  87 SE10      29.87S
6HR MIN TEMP:  70; 6HR MAX TEMP:  76;

VICKSBURG VKS  CLOUDY    70  66  88 S6        29.88S
$$

MSZ059>079-010700-
SOUTH MISSISSIPPI

CITY           SKY/WX    TMP DP  RH WIND       PRES   REMARKS
BROOKHAVEN     FAIR     N/A N/A N/A SE5       29.90S
COLUMBIA       CLOUDY    64  63  94 CALM      29.94S
HATTIESBURG    PTCLDY    65  63  93 CALM      29.92R
6HR MIN TEMP:  64; 6HR MAX TEMP:  69;

MCCOMB         MOCLDY    66  66 100 SE6       29.89S
6HR MIN TEMP:  65; 6HR MAX TEMP:  71;

NATCHEZ        CLOUDY    72  64  78 S7        29.88R
6HR MIN TEMP:  70; 6HR MAX TEMP:  75;

PINE BELT      PTCLDY    63  61  94 CALM      29.92R
6HR MIN TEMP:  63; 6HR MAX TEMP:  66;

$$

MSZ080>082-010700-
COASTAL MISSISSIPPI

CITY           SKY/WX    TMP DP  RH WIND       PRES   REMARKS
BILOXI         PTCLDY    74  72  94 SE8       29.89F
6HR MIN TEMP:  69; 6HR MAX TEMP:  75; 6HR PCP:  0.02;

PASCAGOULA     PTCLDY    69  68  96 CALM      29.90F
6HR MIN TEMP:  68; 6HR MAX TEMP:  72; 6HR PCP:  0.43;

GULFPORT       PTCLDY    73  69  87 SE7       29.89F
6HR MIN TEMP:  70; 6HR MAX TEMP:  74; 6HR PCP: TRACE;

$$




USA.gov is the U.S. government's official web portal to all federal, state and local government web resources and services.